Wind_Speed
46 44 43 43 43 44 40 42 42 42 41 43 43 41 42 42 37 36 36 42 44 43 45 44 45 41 44
44 43 44 44 45 46 44 43 43 46 42 37 38 38 38 39 42 43 41 40 39 40 42 42 40 43 45
42 39 39 42 39 46 52 46 43 42 45 43 40 40 40 39 41 42 39 43 43 42 42 40 38 38 39
39 36 33 32 41 44 35 47 45 46 40 41 49 54 54 49 49 51 54 46 43 42 38 33 34 37 41
34 34 38 36 34 21 33 35 34 44 38 33 37 37 41 48 52 52 43 40 37 40 40 38 36 39 43
32 34 30 34 30 26 34 32 26 25 34 31 33 33 37 37 41 42 41 40 43 42 49 40 43 41 35
33 34 34 30 26 29 30 25 23 24 25 31 34 38 38 40 35 39 41 43 41 45 49 47 41 39 43
32 30 26 21 22 26 28 24 26 27 27 29 27 31 36 37 38 38 38 36 37 36 41 39 41 40 48
31 30 25 20 23 25 24 26 31 31 29 31 26 28 21 32 32 32 36 34 32 30 17 19 23 27 27
23 23 26 24 27 30 30 27 30 33 34 27 27 25 29 32 28 25 30 27 33 29 26 24 23 25 28
19 21 20 19 14 18 25 26 28 26 26 26 29 35 36 33 33 31 28 22 24 28 23 23 20 17 18
2 5 6 5 7 7 13 15 18 23 26 24 20 19 14 14 14 17 13 10 15 17 16 17 20 21 22
7 9 8 10 13 11 12 12 12 14 14 14 12 13 13 14 12 13 12 13 15 20 21 21 21 20 21
9 9 11 11 10 8 9 8 7 7 6 13 13 13 13 15 16 17 19 19 20 20 21 22 22 23 24
13 12 12 11 10 11 11 10 9 9 10 11 13 14 16 16 17 18 20 21 22 22 24 25 26 27 28
15 14 13 13 13 13 12 12 12 13 14 15 16 17 19 20 21 22 23 25 26 27 28 28 29 31 31
17 16 16 15 15 15 15 15 16 17 18 19 20 20 21 22 23 25 26 27 29 30 32 31 31 34 34
Wind_Direction
271 270 265 258 255 254 256 255 252 248 254 254 251 254 251 253 255 252 255 261 267 264 260 256 256 260 266
270 269 269 265 263 263 263 262 256 250 250 255 249 245 238 246 246 247 253 261 263 266 263 260 257 259 267
269 271 272 267 266 259 256 260 257 255 246 240 244 241 241 245 251 253 260 270 267 267 267 264 256 260 262
269 271 275 279 262 261 260 251 255 249 241 241 243 247 254 254 256 258 267 263 263 262 262 261 266 263 264
269 269 264 261 269 259 262 253 247 254 242 241 247 250 253 252 254 259 258 255 257 258 255 266 267 266 267
273 270 269 272 280 258 264 256 249 246 244 244 251 255 255 253 245 249 252 258 255 256 259 265 269 265 258
261 268 273 273 260 258 253 250 251 255 253 247 248 248 252 256 253 255 254 260 262 261 259 257 263 256 241
262 262 275 263 254 248 246 239 243 246 251 256 260 259 257 260 254 261 263 266 273 267 258 256 253 242 245
261 260 261 257 249 250 250 256 245 254 252 262 261 269 263 265 265 254 250 269 268 264 240 218 225 230 232
266 264 273 256 248 253 252 252 260 253 259 265 257 257 261 271 256 261 258 254 244 246 228 240 245 241 237
267 268 269 258 248 253 252 247 250 260 257 262 269 259 262 267 251 260 246 233 239 220 218 225 236 243 246
327 288 264 252 253 261 250 266 257 248 253 261 249 245 223 223 219 211 209 217 226 212 225 252 256 250 247
248 250 245 251 269 263 262 248 240 232 229 228 227 227 221 231 235 233 246 245 248 253 250 247 250 253 252
246 242 241 246 255 247 242 237 244 249 244 234 248 253 250 251 244 242 249 251 248 249 252 255 255 255 255
240 237 238 243 242 240 240 241 244 247 246 245 245 247 252 254 255 255 255 257 258 258 258 259 259 260 261
245 246 245 244 245 249 253 256 257 257 258 257 257 257 258 259 261 262 264 264 265 266 267 267 268 269 269
244 247 249 251 253 255 256 259 260 259 257 258 260 261 262 264 265 266 268 269 269 270 269 268 266 267 270
Height
3000 3002 3003 3006 3008 3011 3014 3016 3020 3023 3024 3026 3029 3033 3035 3038 3040 3042 3044 3045 3046 3047 3048 3050 3051 3052 3052
2989 2991 2992 2996 2998 2999 3001 3003 3005 3010 3013 3015 3018 3021 3023 3025 3028 3030 3032 3034 3034 3035 3035 3038 3041 3041 3041
2978 2981 2981 2984 2985 2986 2988 2990 2993 2996 3000 3004 3008 3011 3013 3015 3017 3019 3021 3022 3022 3024 3025 3026 3029 3030 3030
2969 2971 2972 2973 2972 2973 2973 2977 2980 2981 2986 2990 2994 2999 3001 3003 3005 3006 3009 3011 3012 3013 3014 3016 3018 3019 3020
2961 2961 2962 2963 2962 2960 2963 2965 2966 2969 2971 2977 2983 2986 2988 2990 2993 2995 2996 2998 3001 3003 3004 3006 3007 3008 3008
2953 2952 2953 2954 2953 2951 2953 2954 2957 2960 2961 2965 2972 2974 2976 2977 2979 2982 2985 2987 2988 2990 2993 2995 2997 2998 2998
2945 2945 2944 2945 2945 2946 2947 2949 2950 2954 2957 2959 2962 2963 2965 2967 2969 2972 2975 2976 2976 2977 2980 2982 2985 2986 2987
2937 2936 2936 2936 2938 2939 2940 2941 2944 2947 2950 2951 2954 2955 2956 2958 2960 2962 2964 2966 2965 2963 2965 2967 2972 2975 2978
2928 2928 2929 2930 2930 2931 2934 2935 2937 2939 2941 2943 2946 2947 2946 2949 2950 2951 2952 2954 2955 2956 2956 2958 2961 2965 2966
2920 2921 2921 2922 2924 2923 2926 2928 2930 2930 2932 2935 2937 2937 2939 2939 2940 2943 2944 2946 2947 2949 2950 2952 2955 2957 2960
2914 2914 2914 2914 2915 2917 2918 2921 2922 2923 2925 2927 2929 2930 2930 2930 2932 2934 2935 2936 2938 2942 2944 2947 2949 2952 2955
2911 2911 2911 2911 2912 2913 2915 2916 2915 2917 2918 2920 2920 2921 2922 2924 2926 2928 2931 2932 2934 2936 2940 2944 2947 2949 2950
2907 2908 2909 2910 2910 2910 2911 2912 2912 2913 2914 2916 2917 2919 2921 2922 2923 2925 2927 2928 2930 2934 2937 2938 2940 2941 2942
2904 2905 2906 2907 2907 2907 2908 2909 2909 2910 2911 2913 2915 2916 2917 2919 2920 2920 2922 2924 2926 2927 2928 2930 2932 2934 2936
2901 2902 2902 2903 2903 2904 2905 2905 2906 2907 2908 2910 2911 2913 2913 2914 2915 2916 2916 2918 2918 2920 2922 2923 2924 2925 2927
2897 2898 2898 2899 2900 2900 2901 2902 2903 2904 2905 2905 2906 2907 2907 2909 2910 2910 2910 2911 2912 2913 2914 2916 2916 2916 2918
2891 2892 2893 2894 2894 2895 2896 2896 2897 2899 2900 2901 2901 2901 2901 2901 2902 2902 2902 2902 2903 2904 2904 2905 2907 2906 2907